P/2008 Q2 ( Ory )

Japanese version
Home page
Updated on March 10, 2009

---------------------------------------------------------------------

* Profile

Discovery Date August 27, 2008
Magnitude 17.6 mag
Discoverer Michel Ory (Delemont, Switzerland)

* Pictures

* Orbital Elements

Epoch 2008 Oct. 21.0 TT = JDT 2454760.5
T 2008 Oct. 19.00684 TT                                 MPC
q   1.3822733            (2000.0)            P               Q
n   0.16890824     Peri.  329.58912     +0.86292661     -0.50358743
a   3.2411725      Node    60.70618     +0.47277140     +0.77525070
e   0.5735268      Incl.    2.75514     +0.17845129     +0.38129523
P   5.84

* Finding Charts

* Magnitudes Graph

        m1 = 12.5 + 5 log d + 30.0 log r(t - 25)

---------------------------------------------------------------------

The orbital elements are published on M.P.E.C. 2008-U18.
The charts are made with StellaNavigator Ver.8 (AstroArts).
The magnitudes graphs are made with Comet for Windows.

---------------------------------------------------------------------

Copyright(C) Seiichi Yoshida (comet@aerith.net). All rights reserved.